Location: Salillas
(41.9950°N, 0.2228°W)
Time: 01:28:00
(UTC+00:00)

USA 234 - Pass Details

Date: 29 March 2020
Orbit: 1102 x 1106 km, 123.0° (Epoch: 14 May)

Event Time Altitude Azimuth Distance (km) Brightness Sun altitude
Rises 19:08:27 0° 50° (NE) 3,925 5.8 -9.0°
Reaches altitude 10° 19:10:59 10° 54° (NE) 2,965 5.2 -9.5°
Maximum altitude 19:17:27 60° 134° (SE) 1,247 3.3 -10.7°
Drops below altitude 10° 19:23:53 10° 213° (SSW) 2,955 5.7 -11.8°
Sets 19:26:24 0° 217° (SW) 3,910 6.4 -12.3°
